Year,Month,Day,Hour,Minute,Value (Times are PST for temperature in C)
2020,04,01,00,00,6.90
2020,04,01,00,01,6.90
2020,04,01,00,02,6.90
2020,04,01,00,03,6.90
2020,04,01,00,04,6.90
2020,04,01,00,05,6.90
2020,04,01,00,06,6.90
2020,04,01,00,07,7.00
2020,04,01,00,08,7.00
2020,04,01,00,09,7.00
2020,04,01,00,10,7.00
2020,04,01,00,11,7.00
2020,04,01,00,12,7.00
2020,04,01,00,13,7.00
2020,04,01,00,14,7.00
2020,04,01,00,15,7.00
2020,04,01,00,16,7.00
2020,04,01,00,17,7.00
2020,04,01,00,18,7.00
2020,04,01,00,19,7.00
2020,04,01,00,20,7.00
2020,04,01,00,21,7.00
2020,04,01,00,22,7.00
2020,04,01,00,23,7.00
2020,04,01,00,24,7.00
2020,04,01,00,25,7.00
2020,04,01,00,26,7.00
2020,04,01,00,27,7.00
2020,04,01,00,28,7.00
2020,04,01,00,29,7.00
2020,04,01,00,30,7.00
2020,04,01,00,31,7.00
2020,04,01,00,32,7.00
2020,04,01,00,33,7.00
2020,04,01,00,34,6.90
2020,04,01,00,35,6.90
2020,04,01,00,36,6.90
2020,04,01,00,37,6.90
2020,04,01,00,38,6.90
2020,04,01,00,39,6.80
2020,04,01,00,40,6.80
2020,04,01,00,41,6.80
2020,04,01,00,42,6.80
2020,04,01,00,43,6.80
2020,04,01,00,44,6.80
2020,04,01,00,45,6.90
2020,04,01,00,46,6.80
2020,04,01,00,47,6.80
2020,04,01,00,48,6.80
2020,04,01,00,49,6.80
2020,04,01,00,50,6.80
2020,04,01,00,51,6.80
2020,04,01,00,52,6.80
2020,04,01,00,53,6.80
2020,04,01,00,54,6.80
2020,04,01,00,55,6.80
2020,04,01,00,56,6.80
2020,04,01,00,57,6.80
2020,04,01,00,58,6.80
2020,04,01,00,59,6.80
2020,04,01,01,00,6.80
2020,04,01,01,01,6.80
2020,04,01,01,02,6.80
2020,04,01,01,03,6.80
2020,04,01,01,04,6.80
2020,04,01,01,05,6.70
2020,04,01,01,06,6.70
2020,04,01,01,07,6.70
2020,04,01,01,08,6.70
2020,04,01,01,09,6.70
2020,04,01,01,10,6.70
2020,04,01,01,11,6.70
2020,04,01,01,12,6.70
2020,04,01,01,13,6.70
2020,04,01,01,14,6.70
2020,04,01,01,15,6.70
2020,04,01,01,16,6.70
2020,04,01,01,17,6.60
2020,04,01,01,18,6.60
2020,04,01,01,19,6.60
2020,04,01,01,20,6.60
2020,04,01,01,21,6.60
2020,04,01,01,22,6.60
2020,04,01,01,23,6.60
2020,04,01,01,24,6.70
2020,04,01,01,25,6.70
2020,04,01,01,26,6.70
2020,04,01,01,27,6.70
2020,04,01,01,28,6.70
2020,04,01,01,29,6.70
2020,04,01,01,30,6.80
2020,04,01,01,31,6.80
2020,04,01,01,32,6.80
2020,04,01,01,33,6.80
2020,04,01,01,34,6.80
2020,04,01,01,35,6.70
2020,04,01,01,36,6.70
2020,04,01,01,37,6.70
2020,04,01,01,38,6.70
2020,04,01,01,39,6.70
2020,04,01,01,40,6.70
2020,04,01,01,41,6.70
2020,04,01,01,42,6.70
2020,04,01,01,43,6.70
2020,04,01,01,44,6.70
2020,04,01,01,45,6.70
2020,04,01,01,46,6.70
2020,04,01,01,47,6.70
2020,04,01,01,48,6.70
2020,04,01,01,49,6.70
2020,04,01,01,50,6.70
2020,04,01,01,51,6.70
2020,04,01,01,52,6.70
2020,04,01,01,53,6.70
2020,04,01,01,54,6.70
2020,04,01,01,55,6.70
2020,04,01,01,56,6.70
2020,04,01,01,57,6.70
2020,04,01,01,58,6.70
2020,04,01,01,59,6.70
2020,04,01,02,00,6.70
2020,04,01,02,01,6.70
2020,04,01,02,02,6.70
2020,04,01,02,03,6.70
2020,04,01,02,04,6.70
2020,04,01,02,05,6.70
2020,04,01,02,06,6.70
2020,04,01,02,07,6.70
2020,04,01,02,08,6.70
2020,04,01,02,09,6.70
2020,04,01,02,10,6.70
2020,04,01,02,11,6.70
2020,04,01,02,12,6.70
2020,04,01,02,13,6.70
2020,04,01,02,14,6.70
2020,04,01,02,15,6.70
2020,04,01,02,16,6.70
2020,04,01,02,17,6.70
2020,04,01,02,18,6.70
2020,04,01,02,19,6.70
2020,04,01,02,20,6.70
2020,04,01,02,21,6.70
2020,04,01,02,22,6.70
2020,04,01,02,23,6.60
2020,04,01,02,24,6.60
2020,04,01,02,25,6.60
2020,04,01,02,26,6.60
2020,04,01,02,27,6.60
2020,04,01,02,28,6.60
2020,04,01,02,29,6.60
2020,04,01,02,30,6.60
2020,04,01,02,31,6.60
2020,04,01,02,32,6.60
2020,04,01,02,33,6.60
2020,04,01,02,34,6.60
2020,04,01,02,35,6.60
2020,04,01,02,36,6.60
2020,04,01,02,37,6.60
2020,04,01,02,38,6.50
2020,04,01,02,39,6.50
2020,04,01,02,40,6.50
2020,04,01,02,41,6.50
2020,04,01,02,42,6.50
2020,04,01,02,43,6.50
2020,04,01,02,44,6.50
2020,04,01,02,45,6.50
2020,04,01,02,46,6.50
2020,04,01,02,47,6.40
2020,04,01,02,48,6.40
2020,04,01,02,49,6.40
2020,04,01,02,50,6.40
2020,04,01,02,51,6.40
2020,04,01,02,52,6.40
2020,04,01,02,53,6.40
2020,04,01,02,54,6.40
2020,04,01,02,55,6.40
2020,04,01,02,56,6.40
2020,04,01,02,57,6.40
2020,04,01,02,58,6.40
2020,04,01,02,59,6.40
2020,04,01,03,00,6.40
2020,04,01,03,01,6.40
2020,04,01,03,02,6.40
2020,04,01,03,03,6.40
2020,04,01,03,04,6.40
2020,04,01,03,05,6.40
2020,04,01,03,06,6.40
2020,04,01,03,07,6.40
2020,04,01,03,08,6.40
2020,04,01,03,09,6.40
2020,04,01,03,10,6.40
2020,04,01,03,11,6.40
2020,04,01,03,12,6.40
2020,04,01,03,13,6.40
2020,04,01,03,14,6.40
2020,04,01,03,15,6.40
2020,04,01,03,16,6.40
2020,04,01,03,17,6.40
2020,04,01,03,18,6.40
2020,04,01,03,19,6.40
2020,04,01,03,20,6.40
2020,04,01,03,21,6.40
2020,04,01,03,22,6.40
2020,04,01,03,23,6.40
2020,04,01,03,24,6.40
2020,04,01,03,25,6.40
2020,04,01,03,26,6.40
2020,04,01,03,27,6.40
2020,04,01,03,28,6.40
2020,04,01,03,29,6.40
2020,04,01,03,30,6.40
2020,04,01,03,31,6.40
2020,04,01,03,32,6.40
2020,04,01,03,33,6.40
2020,04,01,03,34,6.40
2020,04,01,03,35,6.40
2020,04,01,03,36,6.40
2020,04,01,03,37,6.40
2020,04,01,03,38,6.40
2020,04,01,03,39,6.40
2020,04,01,03,40,6.40
2020,04,01,03,41,6.40
2020,04,01,03,42,6.40
2020,04,01,03,43,6.40
2020,04,01,03,44,6.40
2020,04,01,03,45,6.40
2020,04,01,03,46,6.40
2020,04,01,03,47,6.40
2020,04,01,03,48,6.40
2020,04,01,03,49,6.40
2020,04,01,03,50,6.40
2020,04,01,03,51,6.40
2020,04,01,03,52,6.40
2020,04,01,03,53,6.40
2020,04,01,03,54,6.40
2020,04,01,03,55,6.40
2020,04,01,03,56,6.40
2020,04,01,03,57,6.40
2020,04,01,03,58,6.40
2020,04,01,03,59,6.40
2020,04,01,04,00,6.40
2020,04,01,04,01,6.40
2020,04,01,04,02,6.40
2020,04,01,04,03,6.40
2020,04,01,04,04,6.40
2020,04,01,04,05,6.40
2020,04,01,04,06,6.40
2020,04,01,04,07,6.40
2020,04,01,04,08,6.40
2020,04,01,04,09,6.40
2020,04,01,04,10,6.40
2020,04,01,04,11,6.30
2020,04,01,04,12,6.30
2020,04,01,04,13,6.30
2020,04,01,04,14,6.30
2020,04,01,04,15,6.30
2020,04,01,04,16,6.30
2020,04,01,04,17,6.30
2020,04,01,04,18,6.30
2020,04,01,04,19,6.30
2020,04,01,04,20,6.30
2020,04,01,04,21,6.30
2020,04,01,04,22,6.30
2020,04,01,04,23,6.30
2020,04,01,04,24,6.30
2020,04,01,04,25,6.30
2020,04,01,04,26,6.30
2020,04,01,04,27,6.30
2020,04,01,04,28,6.30
2020,04,01,04,29,6.30
2020,04,01,04,30,6.20
2020,04,01,04,31,6.20
2020,04,01,04,32,6.20
2020,04,01,04,33,6.20
2020,04,01,04,34,6.20
2020,04,01,04,35,6.20
2020,04,01,04,36,6.20
2020,04,01,04,37,6.20
2020,04,01,04,38,6.20
2020,04,01,04,39,6.20
2020,04,01,04,40,6.20
2020,04,01,04,41,6.20
2020,04,01,04,42,6.20
2020,04,01,04,43,6.20
2020,04,01,04,44,6.20
2020,04,01,04,45,6.20
2020,04,01,04,46,6.20
2020,04,01,04,47,6.20
2020,04,01,04,48,6.20
2020,04,01,04,49,6.20
2020,04,01,04,50,6.20
2020,04,01,04,51,6.20
2020,04,01,04,52,6.20
2020,04,01,04,53,6.20
2020,04,01,04,54,6.20
2020,04,01,04,55,6.20
2020,04,01,04,56,6.20
2020,04,01,04,57,6.20
2020,04,01,04,58,6.20
2020,04,01,04,59,6.20
2020,04,01,05,00,6.20
2020,04,01,05,01,6.10
2020,04,01,05,02,6.10
2020,04,01,05,03,6.10
2020,04,01,05,04,6.10
2020,04,01,05,05,6.10
2020,04,01,05,06,6.10
2020,04,01,05,07,6.10
2020,04,01,05,08,6.10
2020,04,01,05,09,6.10
2020,04,01,05,10,6.10
2020,04,01,05,11,6.10
2020,04,01,05,12,6.10
2020,04,01,05,13,6.10
2020,04,01,05,14,6.10
2020,04,01,05,15,6.10
2020,04,01,05,16,6.10
2020,04,01,05,17,6.10
2020,04,01,05,18,6.10
2020,04,01,05,19,6.10
2020,04,01,05,20,6.10
2020,04,01,05,21,6.10
2020,04,01,05,22,6.10
2020,04,01,05,23,6.10
2020,04,01,05,24,6.10
2020,04,01,05,25,6.10
2020,04,01,05,26,6.10
2020,04,01,05,27,6.10
2020,04,01,05,28,6.10
2020,04,01,05,29,6.10
2020,04,01,05,30,6.10
2020,04,01,05,31,6.10
2020,04,01,05,32,6.10
2020,04,01,05,33,6.10
2020,04,01,08,05,3.80
2020,04,01,08,06,3.80
2020,04,01,08,07,3.80
2020,04,01,08,08,3.80
2020,04,01,08,09,3.80
2020,04,01,08,10,3.80
2020,04,01,08,11,3.80
2020,04,01,08,12,3.80
2020,04,01,08,13,3.80
2020,04,01,08,14,3.80
2020,04,01,08,15,3.80
2020,04,01,08,16,3.80
2020,04,01,08,17,3.80
2020,04,01,08,18,3.80
2020,04,01,08,19,3.80
2020,04,01,08,20,3.80
2020,04,01,08,21,3.80
2020,04,01,08,22,3.80
2020,04,01,08,23,3.80
2020,04,01,08,24,3.80
2020,04,01,08,25,3.80
2020,04,01,08,26,3.80
2020,04,01,08,27,3.70
2020,04,01,08,28,3.70
2020,04,01,08,29,3.70
2020,04,01,08,30,3.70
2020,04,01,08,31,3.80
2020,04,01,08,32,3.80
2020,04,01,08,33,3.80
2020,04,01,08,34,3.80
2020,04,01,08,35,3.80
2020,04,01,08,36,3.80
2020,04,01,08,37,3.80
2020,04,01,08,38,3.80
2020,04,01,08,39,3.80
2020,04,01,08,40,3.80
2020,04,01,08,41,3.80
2020,04,01,08,42,3.80
2020,04,01,08,43,3.80
2020,04,01,08,44,3.80
2020,04,01,08,45,3.80
2020,04,01,08,46,3.80
2020,04,01,08,47,3.80
2020,04,01,08,48,3.80
2020,04,01,08,49,3.80
2020,04,01,08,50,3.80
2020,04,01,08,51,3.80
2020,04,01,08,52,3.80
2020,04,01,08,53,3.80
2020,04,01,08,54,3.80
2020,04,01,08,55,3.80
2020,04,01,08,56,3.80
2020,04,01,08,57,3.80
2020,04,01,08,58,3.90
2020,04,01,08,59,3.90
2020,04,01,09,00,3.90
2020,04,01,09,01,3.90
2020,04,01,09,02,3.90
2020,04,01,09,03,3.90
2020,04,01,09,04,3.90
2020,04,01,09,05,3.90
2020,04,01,09,06,3.90
2020,04,01,09,07,3.90
2020,04,01,09,08,3.90
2020,04,01,09,09,3.90
2020,04,01,09,10,3.90
2020,04,01,09,11,3.90
2020,04,01,09,12,3.90
2020,04,01,09,13,4.00
2020,04,01,09,14,4.00
2020,04,01,09,15,4.00
2020,04,01,09,16,4.00
2020,04,01,09,17,3.90
2020,04,01,09,18,3.90
2020,04,01,09,19,3.90
2020,04,01,09,20,3.90
2020,04,01,09,21,3.90
2020,04,01,09,22,3.90
2020,04,01,09,23,3.90
2020,04,01,09,24,3.90
2020,04,01,09,25,3.90
2020,04,01,09,26,3.90
2020,04,01,09,27,3.90
2020,04,01,09,28,3.90
2020,04,01,09,29,3.90
2020,04,01,09,30,3.90
2020,04,01,09,31,3.90
2020,04,01,09,32,3.90
2020,04,01,09,33,3.90
2020,04,01,09,34,3.90
2020,04,01,09,35,3.90
2020,04,01,09,36,3.90
2020,04,01,09,37,3.90
2020,04,01,09,38,3.80
2020,04,01,09,39,3.80
2020,04,01,09,40,3.80
2020,04,01,09,41,3.80
2020,04,01,09,42,3.80
2020,04,01,09,43,3.80
2020,04,01,09,44,3.80
2020,04,01,09,45,3.80
2020,04,01,09,46,3.80
2020,04,01,09,47,3.80
2020,04,01,09,48,3.80
2020,04,01,09,49,3.90
2020,04,01,09,50,3.90
2020,04,01,09,51,3.90
2020,04,01,09,52,3.90
2020,04,01,09,53,3.90
2020,04,01,09,54,3.90
2020,04,01,09,55,4.00
2020,04,01,09,56,4.00
2020,04,01,09,57,4.10
2020,04,01,09,58,4.10
2020,04,01,09,59,4.20
2020,04,01,10,00,4.20
2020,04,01,10,01,4.20
2020,04,01,10,02,4.30
2020,04,01,10,03,4.30
2020,04,01,10,04,4.30
2020,04,01,10,05,4.30
2020,04,01,10,06,4.30
2020,04,01,10,07,4.30
2020,04,01,10,08,4.40
2020,04,01,10,09,4.40
2020,04,01,10,10,4.40
2020,04,01,10,11,4.40
2020,04,01,10,12,4.50
2020,04,01,10,13,4.50
2020,04,01,10,14,4.60
2020,04,01,10,15,4.60
2020,04,01,10,16,4.60
2020,04,01,10,17,4.60
2020,04,01,10,18,4.60
2020,04,01,10,19,4.60
2020,04,01,10,20,4.60
2020,04,01,10,21,4.60
2020,04,01,10,22,4.60
2020,04,01,10,23,4.60
2020,04,01,10,24,4.60
2020,04,01,10,25,4.70
2020,04,01,10,26,4.70
2020,04,01,10,27,4.80
2020,04,01,10,28,4.80
2020,04,01,10,29,4.90
2020,04,01,10,30,5.00
2020,04,01,10,31,5.00
2020,04,01,10,32,5.10
2020,04,01,10,33,5.20
2020,04,01,10,34,5.20
2020,04,01,10,35,5.20
2020,04,01,10,36,5.20
2020,04,01,10,37,5.20
2020,04,01,10,38,5.20
2020,04,01,10,39,5.30
2020,04,01,10,40,5.30
2020,04,01,10,41,5.30
2020,04,01,10,42,5.30
2020,04,01,10,43,5.40
2020,04,01,10,44,5.30
2020,04,01,10,45,5.30
2020,04,01,10,46,5.40
2020,04,01,10,47,5.40
2020,04,01,10,48,5.30
2020,04,01,10,49,5.30
2020,04,01,10,50,5.30
2020,04,01,10,51,5.40
2020,04,01,10,52,5.40
2020,04,01,10,53,5.40
2020,04,01,10,54,5.40
2020,04,01,10,55,5.40
2020,04,01,10,56,5.50
2020,04,01,10,57,5.60
2020,04,01,10,58,5.70
2020,04,01,10,59,5.80
2020,04,01,11,00,5.80
2020,04,01,11,01,5.90
2020,04,01,11,02,5.90
2020,04,01,11,03,5.80
2020,04,01,11,04,5.80
2020,04,01,11,05,5.90
2020,04,01,11,06,5.90
2020,04,01,11,07,5.90
2020,04,01,11,08,6.00
2020,04,01,11,09,6.00
2020,04,01,11,10,6.10
2020,04,01,11,11,6.00
2020,04,01,11,12,6.00
2020,04,01,11,13,5.90
2020,04,01,11,14,5.90
2020,04,01,11,15,5.90
2020,04,01,11,16,6.00
2020,04,01,11,17,6.00
2020,04,01,11,18,6.00
2020,04,01,11,19,6.10
2020,04,01,11,20,6.10
2020,04,01,11,21,6.10
2020,04,01,11,22,6.20
2020,04,01,11,23,6.20
2020,04,01,11,24,6.20
2020,04,01,11,25,6.30
2020,04,01,11,26,6.30
2020,04,01,11,27,6.20
2020,04,01,11,28,6.20
2020,04,01,11,29,6.20
2020,04,01,11,30,6.20
2020,04,01,11,31,6.20
2020,04,01,11,32,6.20
2020,04,01,11,33,6.20
2020,04,01,11,34,6.20
2020,04,01,11,35,6.20
2020,04,01,11,36,6.20
2020,04,01,11,37,6.20
2020,04,01,11,38,6.20
2020,04,01,11,39,6.20
2020,04,01,11,40,6.20
2020,04,01,11,41,6.20
2020,04,01,11,42,6.20
2020,04,01,11,43,6.20
2020,04,01,11,44,6.20
2020,04,01,11,45,6.20
2020,04,01,11,46,6.20
2020,04,01,11,47,6.10
2020,04,01,11,48,6.10
2020,04,01,11,49,6.20
2020,04,01,11,50,6.10
2020,04,01,11,51,6.10
2020,04,01,11,52,6.10
2020,04,01,11,53,6.10
2020,04,01,11,54,6.20
2020,04,01,11,55,6.20
2020,04,01,11,56,6.20
2020,04,01,11,57,6.30
2020,04,01,11,58,6.30
2020,04,01,11,59,6.30
2020,04,01,12,00,6.30
2020,04,01,12,01,6.30
2020,04,01,12,02,6.30
2020,04,01,12,03,6.40
2020,04,01,12,04,6.40
2020,04,01,12,05,6.40
2020,04,01,12,06,6.50
2020,04,01,12,07,6.50
2020,04,01,12,08,6.50
2020,04,01,12,09,6.60
2020,04,01,12,10,6.60
2020,04,01,12,11,6.60
2020,04,01,12,12,6.60
2020,04,01,12,13,6.60
2020,04,01,12,14,6.60
2020,04,01,12,15,6.60
2020,04,01,12,16,6.60
2020,04,01,12,17,6.50
2020,04,01,12,18,6.50
2020,04,01,12,19,6.50
2020,04,01,12,20,6.40
2020,04,01,12,21,6.50
2020,04,01,12,22,6.50
2020,04,01,12,23,6.50
2020,04,01,12,24,6.60
2020,04,01,12,25,6.60
2020,04,01,12,26,6.50
2020,04,01,12,27,6.50
2020,04,01,12,28,6.40
2020,04,01,12,29,6.50
2020,04,01,12,30,6.60
2020,04,01,12,31,6.70
2020,04,01,12,32,6.70
2020,04,01,12,33,6.80
2020,04,01,12,34,6.80
2020,04,01,12,35,6.80
2020,04,01,12,36,6.80
2020,04,01,12,37,6.80
2020,04,01,12,38,6.80
2020,04,01,12,39,6.80
2020,04,01,12,40,6.80
2020,04,01,12,41,6.80
2020,04,01,12,42,6.80
2020,04,01,12,43,6.80
2020,04,01,12,44,6.80
2020,04,01,12,45,6.80
2020,04,01,12,46,6.90
2020,04,01,12,47,6.90
2020,04,01,12,48,6.90
2020,04,01,12,49,7.00
2020,04,01,12,50,7.00
2020,04,01,12,51,7.10
2020,04,01,12,52,7.20
2020,04,01,12,53,7.20
2020,04,01,12,54,7.30
2020,04,01,12,55,7.30
2020,04,01,12,56,7.30
2020,04,01,12,57,7.30
2020,04,01,12,58,7.30
2020,04,01,12,59,7.40
2020,04,01,13,00,7.40
2020,04,01,13,01,7.50
2020,04,01,13,02,7.60
2020,04,01,13,03,7.60
2020,04,01,13,04,7.70
2020,04,01,13,05,7.70
2020,04,01,13,06,7.80
2020,04,01,13,07,7.80
2020,04,01,13,08,7.90
2020,04,01,13,09,7.90
2020,04,01,13,10,7.80
2020,04,01,13,11,7.80
2020,04,01,13,12,7.80
2020,04,01,13,13,7.80
2020,04,01,13,14,7.70
2020,04,01,13,15,7.70
2020,04,01,13,16,7.70
2020,04,01,13,17,7.70
2020,04,01,13,18,7.70
2020,04,01,13,19,7.70
2020,04,01,13,20,7.70
2020,04,01,13,21,7.80
2020,04,01,13,22,7.80
2020,04,01,13,23,7.80
2020,04,01,13,24,7.80
2020,04,01,13,25,7.90
2020,04,01,13,26,7.90
2020,04,01,13,27,7.90
2020,04,01,13,28,7.80
2020,04,01,13,29,7.80
2020,04,01,13,30,7.80
2020,04,01,13,31,7.80
2020,04,01,13,32,7.70
2020,04,01,13,33,7.70
2020,04,01,13,34,7.70
2020,04,01,13,35,7.60
2020,04,01,13,36,7.60
2020,04,01,13,37,7.60
2020,04,01,13,38,7.60
2020,04,01,13,39,7.60
2020,04,01,13,40,7.70
2020,04,01,13,41,7.80
2020,04,01,13,42,7.80
2020,04,01,13,43,7.80
2020,04,01,13,44,7.80
2020,04,01,13,45,7.80
2020,04,01,13,46,7.90
2020,04,01,13,47,7.90
2020,04,01,13,48,7.90
2020,04,01,13,49,7.90
2020,04,01,13,50,7.90
2020,04,01,13,51,7.90
2020,04,01,13,52,7.90
2020,04,01,13,53,7.80
2020,04,01,13,54,7.80
2020,04,01,13,55,7.80
2020,04,01,13,56,7.80
2020,04,01,13,57,7.80
2020,04,01,13,58,7.80
2020,04,01,13,59,7.80
2020,04,01,14,00,7.80
2020,04,01,14,01,7.90
2020,04,01,14,02,7.90
2020,04,01,14,03,8.00
2020,04,01,14,04,8.00
2020,04,01,14,05,8.10
2020,04,01,14,06,8.10
2020,04,01,14,07,8.10
2020,04,01,14,08,8.10
2020,04,01,14,09,8.10
2020,04,01,14,10,8.10
2020,04,01,14,11,8.00
2020,04,01,14,12,8.00
2020,04,01,14,13,8.00
2020,04,01,14,14,8.00
2020,04,01,14,15,8.00
2020,04,01,14,16,8.10
2020,04,01,14,17,8.20
2020,04,01,14,18,8.20
2020,04,01,14,19,8.20
2020,04,01,14,20,8.20
2020,04,01,14,21,8.20
2020,04,01,14,22,8.20
2020,04,01,14,23,8.20
2020,04,01,14,24,8.30
2020,04,01,14,25,8.30
2020,04,01,14,26,8.20
2020,04,01,14,27,8.20
2020,04,01,14,28,8.20
2020,04,01,14,29,8.20
2020,04,01,14,30,8.10
2020,04,01,14,31,8.10
2020,04,01,14,32,8.10
2020,04,01,14,33,8.10
2020,04,01,14,34,8.10
2020,04,01,14,35,8.20
2020,04,01,14,36,8.20
2020,04,01,14,37,8.20
2020,04,01,14,38,8.20
2020,04,01,14,39,8.30
2020,04,01,14,40,8.30
2020,04,01,14,41,8.30
2020,04,01,14,42,8.30
2020,04,01,14,43,8.40
2020,04,01,14,44,8.40
2020,04,01,14,45,8.40
2020,04,01,14,46,8.40
2020,04,01,14,47,8.30
2020,04,01,14,48,8.30
2020,04,01,14,49,8.30
2020,04,01,14,50,8.30
2020,04,01,14,51,8.30
2020,04,01,14,52,8.30
2020,04,01,14,53,8.30
2020,04,01,14,54,8.30
2020,04,01,14,55,8.30
2020,04,01,14,56,8.40
2020,04,01,14,57,8.40
2020,04,01,14,58,8.40
2020,04,01,14,59,8.40
2020,04,01,15,00,8.40
2020,04,01,15,01,8.40
2020,04,01,15,02,8.40
2020,04,01,15,03,8.40
2020,04,01,15,04,8.50
2020,04,01,15,05,8.60
2020,04,01,15,06,8.60
2020,04,01,15,07,8.60
2020,04,01,15,08,8.60
2020,04,01,15,09,8.60
2020,04,01,15,10,8.60
2020,04,01,15,11,8.60
2020,04,01,15,12,8.60
2020,04,01,15,13,8.60
2020,04,01,15,14,8.70
2020,04,01,15,15,8.70
2020,04,01,15,16,8.70
2020,04,01,15,17,8.70
2020,04,01,15,18,8.60
2020,04,01,15,19,8.60
2020,04,01,15,20,8.60
2020,04,01,15,21,8.50
2020,04,01,15,22,8.50
2020,04,01,15,23,8.50
2020,04,01,15,24,8.60
2020,04,01,15,25,8.60
2020,04,01,15,26,8.60
2020,04,01,15,27,8.60
2020,04,01,15,28,8.60
2020,04,01,15,29,8.60
2020,04,01,15,30,8.60
2020,04,01,15,31,8.60
2020,04,01,15,32,8.60
2020,04,01,15,33,8.60
2020,04,01,15,34,8.70
2020,04,01,15,35,8.70
2020,04,01,15,36,8.70
2020,04,01,15,37,8.80
2020,04,01,15,38,8.80
2020,04,01,15,39,8.80
2020,04,01,15,40,8.80
2020,04,01,15,41,8.80
2020,04,01,15,42,8.80
2020,04,01,15,43,8.80
2020,04,01,15,44,8.80
2020,04,01,15,45,8.80
2020,04,01,15,46,8.80
2020,04,01,15,47,8.70
2020,04,01,15,48,8.70
2020,04,01,15,49,8.70
2020,04,01,15,50,8.70
2020,04,01,15,51,8.70
2020,04,01,15,52,8.70
2020,04,01,15,53,8.70
2020,04,01,15,54,8.70
2020,04,01,15,55,8.80
2020,04,01,15,56,8.80
2020,04,01,15,57,8.80
2020,04,01,15,58,8.90
2020,04,01,15,59,8.90
2020,04,01,16,00,8.90
2020,04,01,16,01,8.90
2020,04,01,16,02,8.90
2020,04,01,16,03,8.90
2020,04,01,16,04,8.90
2020,04,01,16,05,8.80
2020,04,01,16,06,8.80
2020,04,01,16,07,8.80
2020,04,01,16,08,8.70
2020,04,01,16,09,8.70
2020,04,01,16,10,8.70
2020,04,01,16,11,8.70
2020,04,01,16,12,8.70
2020,04,01,16,13,8.70
2020,04,01,16,14,8.70
2020,04,01,16,15,8.80
2020,04,01,16,16,8.80
2020,04,01,16,17,8.80
2020,04,01,16,18,8.80
2020,04,01,16,19,8.80
2020,04,01,16,20,8.80
2020,04,01,16,21,8.90
2020,04,01,16,22,8.90
2020,04,01,16,23,8.90
2020,04,01,16,24,8.80
2020,04,01,16,25,8.80
2020,04,01,16,26,8.80
2020,04,01,16,27,8.80
2020,04,01,16,28,8.80
2020,04,01,16,29,8.80
2020,04,01,16,30,8.80
2020,04,01,16,31,8.80
2020,04,01,16,32,8.80
2020,04,01,16,33,8.90
2020,04,01,16,34,8.90
2020,04,01,16,35,9.00
2020,04,01,16,36,9.20
2020,04,01,16,37,9.20
2020,04,01,16,38,9.30
2020,04,01,16,39,9.30
2020,04,01,16,40,9.30
2020,04,01,16,41,9.30
2020,04,01,16,42,9.20
2020,04,01,16,43,9.20
2020,04,01,16,44,9.20
2020,04,01,16,45,9.20
2020,04,01,16,46,9.20
2020,04,01,16,47,9.20
2020,04,01,16,48,9.20
2020,04,01,16,49,9.30
2020,04,01,16,50,9.30
2020,04,01,16,51,9.30
2020,04,01,16,52,9.30
2020,04,01,16,53,9.30
2020,04,01,16,54,9.40
2020,04,01,16,55,9.40
2020,04,01,16,56,9.40
2020,04,01,16,57,9.30
2020,04,01,16,58,9.30
2020,04,01,16,59,9.30
2020,04,01,17,00,9.30
2020,04,01,17,01,9.30
2020,04,01,17,02,9.20
2020,04,01,17,03,9.20
2020,04,01,17,04,9.20
2020,04,01,17,05,9.20
2020,04,01,17,06,9.30
2020,04,01,17,07,9.30
2020,04,01,17,08,9.30
2020,04,01,17,09,9.30
2020,04,01,17,10,9.40
2020,04,01,17,11,9.40
2020,04,01,17,12,9.40
2020,04,01,17,13,9.40
2020,04,01,17,14,9.40
2020,04,01,17,15,9.40
2020,04,01,17,16,9.40
2020,04,01,17,17,9.40
2020,04,01,17,18,9.40
2020,04,01,17,19,9.40
2020,04,01,17,20,9.40
2020,04,01,17,21,9.40
2020,04,01,17,22,9.30
2020,04,01,17,23,9.30
2020,04,01,17,24,9.20
2020,04,01,17,25,9.20
2020,04,01,17,26,9.20
2020,04,01,17,27,9.20
2020,04,01,17,28,9.20
2020,04,01,17,29,9.20
2020,04,01,17,30,9.20
2020,04,01,17,31,9.20
2020,04,01,17,32,9.20
2020,04,01,17,33,9.20
2020,04,01,17,34,9.30
2020,04,01,17,35,9.30
2020,04,01,17,36,9.40
2020,04,01,17,37,9.40
2020,04,01,17,38,9.50
2020,04,01,17,39,9.50
2020,04,01,17,40,9.40
2020,04,01,17,41,9.40
2020,04,01,17,42,9.40
2020,04,01,17,43,9.40
2020,04,01,17,44,9.40
2020,04,01,17,45,9.40
2020,04,01,17,46,9.40
2020,04,01,17,47,9.40
2020,04,01,17,48,9.40
2020,04,01,17,49,9.50
2020,04,01,17,50,9.50
2020,04,01,17,51,9.50
2020,04,01,17,52,9.50
2020,04,01,17,53,9.50
2020,04,01,17,54,9.50
2020,04,01,17,55,9.50
2020,04,01,17,56,9.50
2020,04,01,17,57,9.50
2020,04,01,17,58,9.50
2020,04,01,17,59,9.40
2020,04,01,18,00,9.40
2020,04,01,18,01,9.50
2020,04,01,18,02,9.40
2020,04,01,18,03,9.40
2020,04,01,18,04,9.40
2020,04,01,18,05,9.40
2020,04,01,18,06,9.40
2020,04,01,18,07,9.40
2020,04,01,18,08,9.40
2020,04,01,18,09,9.40
2020,04,01,18,10,9.40
2020,04,01,18,11,9.30
2020,04,01,18,12,9.30
2020,04,01,18,13,9.20
2020,04,01,18,14,9.10
2020,04,01,18,15,9.10
2020,04,01,18,16,9.00
2020,04,01,18,17,9.00
2020,04,01,18,18,8.90
2020,04,01,18,19,8.90
2020,04,01,18,20,8.80
2020,04,01,18,21,8.80
2020,04,01,18,22,8.80
2020,04,01,18,23,8.70
2020,04,01,18,24,8.70
2020,04,01,18,25,8.70
2020,04,01,18,26,8.70
2020,04,01,18,27,8.70
2020,04,01,18,28,8.60
2020,04,01,18,29,8.60
2020,04,01,18,30,8.60
2020,04,01,18,31,8.60
2020,04,01,18,32,8.60
2020,04,01,18,33,8.60
2020,04,01,18,34,8.60
2020,04,01,18,35,8.60
2020,04,01,18,36,8.50
2020,04,01,18,37,8.50
2020,04,01,18,38,8.50
2020,04,01,18,39,8.50
2020,04,01,18,40,8.50
2020,04,01,18,41,8.50
2020,04,01,18,42,8.50
2020,04,01,18,43,8.50
2020,04,01,18,44,8.50
2020,04,01,18,45,8.50
2020,04,01,18,46,8.50
2020,04,01,18,47,8.40
2020,04,01,18,48,8.40
2020,04,01,18,49,8.40
2020,04,01,18,50,8.40
2020,04,01,18,51,8.40
2020,04,01,18,52,8.40
2020,04,01,18,53,8.40
2020,04,01,18,54,8.40
2020,04,01,18,55,8.40
2020,04,01,18,56,8.40
2020,04,01,18,57,8.30
2020,04,01,18,58,8.30
2020,04,01,18,59,8.30
2020,04,01,19,00,8.30
2020,04,01,19,01,8.30
2020,04,01,19,02,8.30
2020,04,01,19,03,8.30
2020,04,01,19,04,8.30
2020,04,01,19,05,8.30
2020,04,01,19,06,8.30
2020,04,01,19,07,8.30
2020,04,01,19,08,8.30
2020,04,01,19,09,8.30
2020,04,01,19,10,8.30
2020,04,01,19,11,8.30
2020,04,01,19,12,8.30
2020,04,01,19,13,8.30
2020,04,01,19,14,8.30
2020,04,01,19,15,8.30
2020,04,01,19,16,8.30
2020,04,01,19,17,8.30
2020,04,01,19,18,8.30
2020,04,01,19,19,8.30
2020,04,01,19,20,8.30
2020,04,01,19,21,8.30
2020,04,01,19,22,8.30
2020,04,01,19,23,8.30
2020,04,01,19,24,8.30
2020,04,01,19,25,8.30
2020,04,01,19,26,8.30
2020,04,01,19,27,8.30
2020,04,01,19,28,8.30
2020,04,01,19,29,8.30
2020,04,01,19,30,8.30
2020,04,01,19,31,8.30
2020,04,01,19,32,8.30
2020,04,01,19,33,8.30
2020,04,01,19,34,8.20
2020,04,01,19,35,8.30
2020,04,01,19,36,8.30
2020,04,01,19,37,8.20
2020,04,01,19,38,8.20
2020,04,01,19,39,8.20
2020,04,01,19,40,8.20
2020,04,01,19,41,8.20
2020,04,01,19,42,8.20
2020,04,01,19,43,8.20
2020,04,01,19,44,8.20
2020,04,01,19,45,8.20
2020,04,01,19,46,8.20
2020,04,01,19,47,8.20
2020,04,01,19,48,8.20
2020,04,01,19,49,8.20
2020,04,01,19,50,8.20
2020,04,01,19,51,8.20
2020,04,01,19,52,8.10
2020,04,01,19,53,8.10
2020,04,01,19,54,8.10
2020,04,01,19,55,8.10
2020,04,01,19,56,8.00
2020,04,01,19,57,8.00
2020,04,01,19,58,7.90
2020,04,01,19,59,7.90
2020,04,01,20,00,7.90
2020,04,01,20,01,7.90
2020,04,01,20,02,7.90
2020,04,01,20,03,7.90
2020,04,01,20,04,7.80
2020,04,01,20,05,7.80
2020,04,01,20,06,7.80
2020,04,01,20,07,7.80
2020,04,01,20,08,7.80
2020,04,01,20,09,7.80
2020,04,01,20,10,7.80
2020,04,01,20,11,7.80
2020,04,01,20,12,7.80
2020,04,01,20,13,7.70
2020,04,01,20,14,7.70
2020,04,01,20,15,7.70
2020,04,01,20,16,7.70
2020,04,01,20,17,7.70
2020,04,01,20,18,7.70
2020,04,01,20,19,7.70
2020,04,01,20,20,7.60
2020,04,01,20,21,7.60
2020,04,01,20,22,7.60
2020,04,01,20,23,7.60
2020,04,01,20,24,7.60
2020,04,01,20,25,7.70
2020,04,01,20,26,7.70
2020,04,01,20,27,7.70
2020,04,01,20,28,7.70
2020,04,01,20,29,7.60
2020,04,01,20,30,7.60
2020,04,01,20,31,7.60
2020,04,01,20,32,7.60
2020,04,01,20,33,7.60
2020,04,01,20,34,7.60
2020,04,01,20,35,7.50
2020,04,01,20,36,7.50
2020,04,01,20,37,7.50